Time,TemperatureF,DewpointF,PressureIn,WindDirection,WindDirectionDegrees,WindSpeedMPH,WindSpeedGustMPH,Humidity,HourlyPrecipIn,Conditions,Clouds,dailyrainin,SoftwareType,DateUTC
2013-02-28 00:01:00,52.0,32.0,29.91,SSW,213,0.0,-999.0,47,-99.99,,,-99.99,,2013-02-28 08:01:00,
2013-02-28 00:11:00,52.0,32.0,29.91,SSW,213,0.0,-999.0,47,-99.99,,,-99.99,,2013-02-28 08:11:00,
2013-02-28 00:21:00,53.0,32.0,29.91,West,264,0.0,-999.0,45,-99.99,,,-99.99,,2013-02-28 08:21:00,
2013-02-28 00:31:00,53.0,32.0,29.91,West,264,0.0,-999.0,45,-99.99,,,-99.99,,2013-02-28 08:31:00,
2013-02-28 00:41:00,53.0,32.0,29.91,West,264,0.0,-999.0,45,-99.99,,,-99.99,,2013-02-28 08:41:00,
2013-02-28 00:52:00,53.0,32.0,29.92,West,264,0.0,-999.0,45,-99.99,,,-99.99,,2013-02-28 08:52:00,
2013-02-28 01:02:00,52.0,32.0,29.92,SE,140,0.0,-999.0,47,-99.99,,,-99.99,,2013-02-28 09:02:00,
2013-02-28 01:11:00,52.0,32.0,29.92,SE,140,0.0,-999.0,47,-99.99,,,-99.99,,2013-02-28 09:11:00,
2013-02-28 01:21:00,51.0,32.0,29.91,ESE,112,0.0,-999.0,48,-99.99,,,-99.99,,2013-02-28 09:21:00,
2013-02-28 01:31:00,50.0,31.0,29.92,ESE,113,0.0,-999.0,47,-99.99,,,-99.99,,2013-02-28 09:31:00,
2013-02-28 01:41:00,50.0,31.0,29.92,ESE,113,0.0,-999.0,47,-99.99,,,-99.99,,2013-02-28 09:41:00,
2013-02-28 01:52:00,50.0,31.0,29.92,ESE,113,0.0,-999.0,47,-99.99,,,-99.99,,2013-02-28 09:52:00,
2013-02-28 02:01:00,52.0,33.0,29.91,NE,46,0.0,-999.0,49,-99.99,,,-99.99,,2013-02-28 10:01:00,
2013-02-28 02:11:00,52.0,34.0,29.91,NE,47,0.0,-999.0,50,-99.99,,,-99.99,,2013-02-28 10:11:00,
2013-02-28 02:21:00,52.0,34.0,29.91,NE,47,0.0,-999.0,50,-99.99,,,-99.99,,2013-02-28 10:21:00,
2013-02-28 02:31:00,53.0,36.0,29.90,North,350,1.0,-999.0,52,-99.99,,,-99.99,,2013-02-28 10:31:00,
2013-02-28 02:41:00,53.0,36.0,29.90,North,350,1.0,-999.0,52,-99.99,,,-99.99,,2013-02-28 10:41:00,
2013-02-28 02:52:00,53.0,36.0,29.90,NNW,331,0.0,-999.0,53,-99.99,,,-99.99,,2013-02-28 10:52:00,
2013-02-28 03:01:00,52.0,37.0,29.91,North,360,0.0,-999.0,57,-99.99,,,-99.99,,2013-02-28 11:01:00,
2013-02-28 03:11:00,52.0,37.0,29.91,North,360,0.0,-999.0,57,-99.99,,,-99.99,,2013-02-28 11:11:00,
2013-02-28 03:21:00,51.0,37.0,29.90,North,360,0.0,-999.0,59,-99.99,,,-99.99,,2013-02-28 11:21:00,
2013-02-28 03:31:00,51.0,38.0,29.91,NNE,26,0.0,-999.0,60,-99.99,,,-99.99,,2013-02-28 11:31:00,
2013-02-28 03:41:00,51.0,38.0,29.91,NNE,26,0.0,-999.0,60,-99.99,,,-99.99,,2013-02-28 11:41:00,
2013-02-28 03:52:00,50.0,37.0,29.90,NNE,26,0.0,-999.0,61,-99.99,,,-99.99,,2013-02-28 11:52:00,
2013-02-28 04:01:00,49.0,37.0,29.91,NNE,26,0.0,-999.0,63,-99.99,,,-99.99,,2013-02-28 12:01:00,
2013-02-28 04:11:00,49.0,37.0,29.91,NNE,26,0.0,-999.0,63,-99.99,,,-99.99,,2013-02-28 12:11:00,
2013-02-28 04:21:00,48.0,37.0,29.90,NNE,26,0.0,-999.0,65,-99.99,,,-99.99,,2013-02-28 12:21:00,
2013-02-28 04:31:00,47.0,36.0,29.91,NNE,26,0.0,-999.0,66,-99.99,,,-99.99,,2013-02-28 12:31:00,
2013-02-28 04:42:00,47.0,36.0,29.91,NNE,26,0.0,-999.0,66,-99.99,,,-99.99,,2013-02-28 12:42:00,
2013-02-28 04:52:00,48.0,37.0,29.91,NNE,26,0.0,-999.0,65,-99.99,,,-99.99,,2013-02-28 12:52:00,
2013-02-28 05:01:00,49.0,37.0,29.91,NNE,26,0.0,-999.0,64,-99.99,,,-99.99,,2013-02-28 13:01:00,
2013-02-28 05:11:00,49.0,38.0,29.91,NE,39,0.0,-999.0,65,-99.99,,,-99.99,,2013-02-28 13:11:00,
2013-02-28 05:21:00,49.0,38.0,29.91,NE,39,0.0,-999.0,65,-99.99,,,-99.99,,2013-02-28 13:21:00,
2013-02-28 05:31:00,50.0,38.0,29.91,NE,41,0.0,-999.0,63,-99.99,,,-99.99,,2013-02-28 13:31:00,
2013-02-28 05:41:00,50.0,38.0,29.91,NE,41,0.0,-999.0,63,-99.99,,,-99.99,,2013-02-28 13:41:00,
2013-02-28 05:52:00,50.0,38.0,29.92,NE,42,0.0,-999.0,63,-99.99,,,-99.99,,2013-02-28 13:52:00,
2013-02-28 06:01:00,49.0,37.0,29.92,ESE,105,0.0,-999.0,64,-99.99,,,-99.99,,2013-02-28 14:01:00,
2013-02-28 06:11:00,50.0,38.0,29.92,SE,134,0.0,-999.0,64,-99.99,,,-99.99,,2013-02-28 14:11:00,
2013-02-28 06:21:00,50.0,38.0,29.92,SE,134,0.0,-999.0,64,-99.99,,,-99.99,,2013-02-28 14:21:00,
2013-02-28 06:31:00,50.0,38.0,29.93,SE,134,0.0,-999.0,63,-99.99,,,-99.99,,2013-02-28 14:31:00,
2013-02-28 06:41:00,50.0,38.0,29.93,NE,38,0.0,-999.0,62,-99.99,,,-99.99,,2013-02-28 14:41:00,
2013-02-28 06:52:00,50.0,38.0,29.93,NE,38,0.0,-999.0,62,-99.99,,,-99.99,,2013-02-28 14:52:00,
2013-02-28 07:01:00,51.0,38.0,29.93,NE,51,0.0,-999.0,60,-99.99,,,-99.99,,2013-02-28 15:01:00,
2013-02-28 07:11:00,51.0,38.0,29.93,NE,51,0.0,-999.0,60,-99.99,,,-99.99,,2013-02-28 15:11:00,
2013-02-28 07:21:00,52.0,38.0,29.94,ENE,63,0.0,-999.0,59,-99.99,,,-99.99,,2013-02-28 15:21:00,
2013-02-28 07:31:00,53.0,39.0,29.95,NE,35,0.0,-999.0,59,-99.99,,,-99.99,,2013-02-28 15:31:00,
2013-02-28 07:41:00,53.0,39.0,29.95,NE,35,0.0,-999.0,59,-99.99,,,-99.99,,2013-02-28 15:41:00,
2013-02-28 07:52:00,54.0,38.0,29.96,NE,52,0.0,-999.0,55,-99.99,,,-99.99,,2013-02-28 15:52:00,
2013-02-28 08:01:00,55.0,39.0,29.95,SSE,153,0.0,-999.0,55,-99.99,,,-99.99,,2013-02-28 16:01:00,
2013-02-28 08:21:00,57.0,40.0,29.96,ESE,110,0.0,-999.0,53,-99.99,,,-99.99,,2013-02-28 16:21:00,
2013-02-28 08:31:00,57.0,40.0,29.97,NNW,344,0.0,-999.0,53,-99.99,,,-99.99,,2013-02-28 16:31:00,
2013-02-28 08:42:00,57.0,40.0,29.97,NNW,344,0.0,-999.0,53,-99.99,,,-99.99,,2013-02-28 16:42:00,
2013-02-28 08:52:00,58.0,40.0,29.97,North,9,0.0,-999.0,52,-99.99,,,-99.99,,2013-02-28 16:52:00,
2013-02-28 09:01:00,58.0,40.0,29.97,East,88,1.0,-999.0,52,-99.99,,,-99.99,,2013-02-28 17:01:00,
2013-02-28 09:11:00,58.0,39.0,29.97,ENE,72,1.0,-999.0,50,-99.99,,,-99.99,,2013-02-28 17:11:00,
2013-02-28 09:21:00,58.0,39.0,29.97,ENE,72,1.0,-999.0,50,-99.99,,,-99.99,,2013-02-28 17:21:00,
2013-02-28 09:31:00,58.0,39.0,29.98,NE,38,2.0,-999.0,50,-99.99,,,-99.99,,2013-02-28 17:31:00,
2013-02-28 09:41:00,58.0,39.0,29.98,NE,38,2.0,-999.0,50,-99.99,,,-99.99,,2013-02-28 17:41:00,
2013-02-28 09:52:00,58.0,40.0,29.98,ENE,58,0.0,-999.0,51,-99.99,,,-99.99,,2013-02-28 17:52:00,
2013-02-28 10:01:00,58.0,40.0,29.98,NE,38,1.0,-999.0,52,-99.99,,,-99.99,,2013-02-28 18:01:00,
2013-02-28 10:11:00,58.0,40.0,29.98,NE,38,1.0,-999.0,52,-99.99,,,-99.99,,2013-02-28 18:11:00,
2013-02-28 10:21:00,58.0,40.0,29.98,NE,38,1.0,-999.0,52,-99.99,,,-99.99,,2013-02-28 18:21:00,
2013-02-28 10:31:00,59.0,42.0,29.98,NNW,348,2.0,-999.0,53,-99.99,,,-99.99,,2013-02-28 18:31:00,
2013-02-28 10:41:00,59.0,42.0,29.98,NNW,348,2.0,-999.0,53,-99.99,,,-99.99,,2013-02-28 18:41:00,
2013-02-28 10:52:00,59.0,42.0,29.98,NE,34,5.0,-999.0,54,-99.99,,,-99.99,,2013-02-28 18:52:00,
2013-02-28 11:01:00,59.0,43.0,29.98,NE,35,2.0,-999.0,55,-99.99,,,-99.99,,2013-02-28 19:01:00,
2013-02-28 11:11:00,59.0,43.0,29.98,NE,35,2.0,-999.0,55,-99.99,,,-99.99,,2013-02-28 19:11:00,
2013-02-28 11:21:00,59.0,43.0,29.98,East,93,4.0,-999.0,55,-99.99,,,-99.99,,2013-02-28 19:21:00,
2013-02-28 11:31:00,60.0,44.0,29.98,NNE,15,6.0,-999.0,55,-99.99,,,-99.99,,2013-02-28 19:31:00,
2013-02-28 11:41:00,60.0,44.0,29.98,NNE,15,6.0,-999.0,55,-99.99,,,-99.99,,2013-02-28 19:41:00,
2013-02-28 11:52:00,60.0,43.0,29.97,North,5,5.0,-999.0,54,-99.99,,,-99.99,,2013-02-28 19:52:00,
2013-02-28 12:01:00,61.0,45.0,29.97,NNE,30,5.0,-999.0,55,-99.99,,,-99.99,,2013-02-28 20:01:00,
2013-02-28 12:11:00,61.0,45.0,29.97,NNE,30,5.0,-999.0,55,-99.99,,,-99.99,,2013-02-28 20:11:00,
2013-02-28 12:21:00,61.0,45.0,29.96,NNE,12,4.0,-999.0,56,-99.99,,,-99.99,,2013-02-28 20:21:00,
2013-02-28 12:31:00,61.0,45.0,29.96,NNE,24,2.0,-999.0,55,-99.99,,,-99.99,,2013-02-28 20:31:00,
2013-02-28 12:41:00,61.0,45.0,29.96,NNE,24,2.0,-999.0,55,-99.99,,,-99.99,,2013-02-28 20:41:00,
2013-02-28 12:52:00,61.0,46.0,29.95,NE,48,1.0,-999.0,57,-99.99,,,-99.99,,2013-02-28 20:52:00,
2013-02-28 13:01:00,62.0,45.0,29.95,ENE,72,1.0,-999.0,53,-99.99,,,-99.99,,2013-02-28 21:01:00,
2013-02-28 13:11:00,62.0,45.0,29.95,ENE,72,1.0,-999.0,53,-99.99,,,-99.99,,2013-02-28 21:11:00,
2013-02-28 13:22:00,63.0,46.0,29.94,NE,38,3.0,-999.0,53,-99.99,,,-99.99,,2013-02-28 21:22:00,
2013-02-28 13:31:00,63.0,46.0,29.94,NE,38,3.0,-999.0,53,-99.99,,,-99.99,,2013-02-28 21:31:00,
2013-02-28 13:41:00,63.0,46.0,29.94,NE,38,3.0,-999.0,53,-99.99,,,-99.99,,2013-02-28 21:41:00,
2013-02-28 13:52:00,63.0,45.0,29.93,NNE,29,2.0,-999.0,52,-99.99,,,-99.99,,2013-02-28 21:52:00,
2013-02-28 14:01:00,63.0,45.0,29.93,NNE,29,2.0,-999.0,52,-99.99,,,-99.99,,2013-02-28 22:01:00,
2013-02-28 14:11:00,63.0,45.0,29.93,NNE,29,2.0,-999.0,52,-99.99,,,-99.99,,2013-02-28 22:11:00,
2013-02-28 14:21:00,62.0,40.0,29.93,NE,40,4.0,-999.0,45,-99.99,,,-99.99,,2013-02-28 22:21:00,
2013-02-28 14:31:00,62.0,43.0,29.93,ENE,67,6.0,-999.0,50,-99.99,,,-99.99,,2013-02-28 22:31:00,
2013-02-28 14:42:00,62.0,43.0,29.93,ENE,67,6.0,-999.0,50,-99.99,,,-99.99,,2013-02-28 22:42:00,
2013-02-28 14:52:00,62.0,48.0,29.93,NW,320,2.0,-999.0,60,-99.99,,,-99.99,,2013-02-28 22:52:00,
2013-02-28 15:01:00,59.0,47.0,29.94,NNE,22,3.0,-999.0,65,-99.99,,,-99.99,,2013-02-28 23:01:00,
2013-02-28 15:11:00,58.0,45.0,29.93,North,355,2.0,-999.0,63,-99.99,,,-99.99,,2013-02-28 23:11:00,
2013-02-28 15:21:00,58.0,45.0,29.93,North,355,2.0,-999.0,63,-99.99,,,-99.99,,2013-02-28 23:21:00,
2013-02-28 15:31:00,59.0,48.0,29.94,North,350,1.0,-999.0,68,-99.99,,,-99.99,,2013-02-28 23:31:00,
2013-02-28 15:41:00,59.0,48.0,29.94,North,350,1.0,-999.0,68,-99.99,,,-99.99,,2013-02-28 23:41:00,
2013-02-28 15:52:00,59.0,48.0,29.94,NW,306,1.0,-999.0,67,-99.99,,,-99.99,,2013-02-28 23:52:00,
2013-02-28 16:01:00,59.0,48.0,29.94,NNE,21,0.0,-999.0,67,-99.99,,,-99.99,,2013-03-01 00:01:00,
2013-02-28 16:11:00,59.0,48.0,29.94,NNE,21,0.0,-999.0,67,-99.99,,,-99.99,,2013-03-01 00:11:00,
2013-02-28 16:22:00,59.0,48.0,29.93,North,5,0.0,-999.0,67,-99.99,,,-99.99,,2013-03-01 00:22:00,
2013-02-28 16:32:00,59.0,48.0,29.93,NNE,12,0.0,-999.0,68,-99.99,,,-99.99,,2013-03-01 00:32:00,
2013-02-28 16:41:00,59.0,48.0,29.93,NNE,12,0.0,-999.0,68,-99.99,,,-99.99,,2013-03-01 00:41:00,
2013-02-28 16:52:00,59.0,48.0,29.93,WNW,296,2.0,-999.0,68,-99.99,,,-99.99,,2013-03-01 00:52:00,
2013-02-28 17:01:00,58.0,48.0,29.93,WNW,303,1.0,-999.0,69,-99.99,,,-99.99,,2013-03-01 01:01:00,
2013-02-28 17:11:00,57.0,48.0,29.93,WNW,286,2.0,-999.0,71,-99.99,,,-99.99,,2013-03-01 01:11:00,
2013-02-28 17:21:00,57.0,48.0,29.93,WNW,286,2.0,-999.0,71,-99.99,,,-99.99,,2013-03-01 01:21:00,
2013-02-28 17:31:00,56.0,47.0,29.93,WSW,250,1.0,-999.0,73,-99.99,,,-99.99,,2013-03-01 01:31:00,
2013-02-28 17:41:00,56.0,47.0,29.93,WSW,250,1.0,-999.0,73,-99.99,,,-99.99,,2013-03-01 01:41:00,
2013-02-28 17:52:00,54.0,47.0,29.93,WSW,250,2.0,-999.0,76,-99.99,,,-99.99,,2013-03-01 01:52:00,
2013-02-28 18:01:00,53.0,47.0,29.94,SW,217,0.0,-999.0,79,-99.99,,,-99.99,,2013-03-01 02:01:00,
2013-02-28 18:11:00,52.0,46.0,29.93,SSW,195,0.0,-999.0,81,-99.99,,,-99.99,,2013-03-01 02:11:00,
2013-02-28 18:21:00,52.0,46.0,29.93,SSW,195,0.0,-999.0,81,-99.99,,,-99.99,,2013-03-01 02:21:00,
2013-02-28 18:31:00,52.0,46.0,29.93,SSW,195,2.0,-999.0,80,-99.99,,,-99.99,,2013-03-01 02:31:00,
2013-02-28 18:41:00,52.0,46.0,29.93,SSW,195,2.0,-999.0,80,-99.99,,,-99.99,,2013-03-01 02:41:00,
2013-02-28 18:52:00,52.0,46.0,29.94,SE,128,0.0,-999.0,79,-99.99,,,-99.99,,2013-03-01 02:52:00,
2013-02-28 19:01:00,52.0,46.0,29.94,East,97,0.0,-999.0,80,-99.99,,,-99.99,,2013-03-01 03:01:00,
2013-02-28 19:11:00,52.0,46.0,29.95,SSW,195,0.0,-999.0,79,-99.99,,,-99.99,,2013-03-01 03:11:00,
2013-02-28 19:21:00,52.0,46.0,29.95,SSW,195,0.0,-999.0,79,-99.99,,,-99.99,,2013-03-01 03:21:00,
2013-02-28 19:31:00,52.0,45.0,29.95,SSE,168,0.0,-999.0,78,-99.99,,,-99.99,,2013-03-01 03:31:00,
2013-02-28 19:41:00,52.0,45.0,29.95,SSE,168,0.0,-999.0,78,-99.99,,,-99.99,,2013-03-01 03:41:00,
2013-02-28 19:52:00,52.0,45.0,29.95,SSE,161,0.0,-999.0,76,-99.99,,,-99.99,,2013-03-01 03:52:00,
2013-02-28 20:01:00,52.0,45.0,29.96,SSE,163,0.0,-999.0,76,-99.99,,,-99.99,,2013-03-01 04:01:00,
2013-02-28 20:11:00,52.0,45.0,29.96,SSE,163,0.0,-999.0,76,-99.99,,,-99.99,,2013-03-01 04:11:00,
2013-02-28 20:21:00,52.0,45.0,29.96,SSE,163,0.0,-999.0,78,-99.99,,,-99.99,,2013-03-01 04:21:00,
2013-02-28 20:31:00,52.0,45.0,29.97,SSE,158,0.0,-999.0,77,-99.99,,,-99.99,,2013-03-01 04:31:00,
2013-02-28 20:41:00,52.0,45.0,29.97,SSE,158,0.0,-999.0,77,-99.99,,,-99.99,,2013-03-01 04:41:00,
2013-02-28 20:52:00,52.0,45.0,29.97,SSE,158,0.0,-999.0,78,-99.99,,,-99.99,,2013-03-01 04:52:00,
2013-02-28 21:01:00,51.0,44.0,29.97,SSE,158,0.0,-999.0,78,-99.99,,,-99.99,,2013-03-01 05:01:00,
2013-02-28 21:11:00,51.0,44.0,29.97,SSE,158,0.0,-999.0,78,-99.99,,,-99.99,,2013-03-01 05:11:00,
2013-02-28 21:22:00,53.0,46.0,29.97,SSE,157,0.0,-999.0,77,-99.99,,,-99.99,,2013-03-01 05:22:00,
2013-02-28 21:32:00,53.0,45.0,29.97,SSE,157,0.0,-999.0,75,-99.99,,,-99.99,,2013-03-01 05:32:00,
2013-02-28 21:41:00,53.0,45.0,29.97,SSE,157,0.0,-999.0,75,-99.99,,,-99.99,,2013-03-01 05:41:00,
2013-02-28 21:52:00,53.0,46.0,29.98,SSE,151,0.0,-999.0,76,-99.99,,,-99.99,,2013-03-01 05:52:00,
2013-02-28 22:01:00,54.0,46.0,29.97,SE,124,0.0,-999.0,74,-99.99,,,-99.99,,2013-03-01 06:01:00,
2013-02-28 22:11:00,54.0,46.0,29.97,SE,124,0.0,-999.0,74,-99.99,,,-99.99,,2013-03-01 06:11:00,
2013-02-28 22:21:00,55.0,47.0,29.98,SE,143,0.0,-999.0,73,-99.99,,,-99.99,,2013-03-01 06:21:00,
2013-02-28 22:31:00,55.0,47.0,29.97,SSE,155,0.0,-999.0,73,-99.99,,,-99.99,,2013-03-01 06:31:00,
2013-02-28 22:41:00,55.0,47.0,29.97,SSE,155,0.0,-999.0,73,-99.99,,,-99.99,,2013-03-01 06:41:00,
2013-02-28 22:52:00,54.0,46.0,29.97,SE,146,1.0,-999.0,74,-99.99,,,-99.99,,2013-03-01 06:52:00,
2013-02-28 23:01:00,54.0,46.0,29.97,SSE,157,7.0,-999.0,74,-99.99,,,-99.99,,2013-03-01 07:01:00,
2013-02-28 23:11:00,54.0,46.0,29.97,SSE,157,7.0,-999.0,74,-99.99,,,-99.99,,2013-03-01 07:11:00,
2013-02-28 23:21:00,54.0,46.0,29.97,SSE,167,7.0,-999.0,74,-99.99,,,-99.99,,2013-03-01 07:21:00,
2013-02-28 23:31:00,54.0,46.0,29.96,South,173,7.0,-999.0,73,-99.99,,,-99.99,,2013-03-01 07:31:00,
2013-02-28 23:41:00,54.0,46.0,29.96,South,173,7.0,-999.0,73,-99.99,,,-99.99,,2013-03-01 07:41:00,
2013-02-28 23:52:00,54.0,46.0,29.97,SE,125,4.0,-999.0,74,-99.99,,,-99.99,,2013-03-01 07:52:00,